Regional Weather Roundup
Issued by NWS

Home | Current Version | Previous Version | Text Only | Print | Product List | Glossary Off
Versions: 1 2 3 4 5 6 7 8 9 10 11 12 13 14 15 16 17 18 19 20 21 22 23 24 25 26 27 28 29 30 31 32 33 34 35 36 37 38 39 40 41 42 43 44 45 46 47 48 49 50

000
ASUS43 KLOT 261158
RWRIL

ILLINOIS REGIONAL WEATHER ROUNDUP
NATIONAL WEATHER SERVICE CHICAGO/ROMEOVILLE IL
600 AM CST WED NOV 26 2014

NOTE: "FAIR" INDICATES FEW OR NO CLOUDS BELOW 12,000 FEET WITH NO
SIGNIFICANT WEATHER AND/OR OBSTRUCTIONS TO VISIBILITY.

* THESE STATIONS ARE NOT UNDER NWS QUALITY CONTROL. THEY ALSO MAY NOT
  REPORT WEATHER SUCH AS PRECIPITATION OR FOG.

ILZ001-002-007-009-015-016-024-261300-
NORTHWEST ILLINOIS

CITY           SKY/WX    TMP DP  RH WIND       PRES   REMARKS
MOLINE         MOCLDY    18  14  84 E8        30.07F WCI   8
6HR MIN TEMP:  11; 6HR MAX TEMP:  18;

$$

ILZ003-004-008-010-011-017-018-261300-
NORTH CENTRAL ILLINOIS

CITY           SKY/WX    TMP DP  RH WIND       PRES   REMARKS
ROCKFORD       NOT AVBL
$$

ILZ005-006-012>014-019>023-261300-
NORTHEAST ILLINOIS

CITY           SKY/WX    TMP DP  RH WIND       PRES   REMARKS
CHICAGO-OHARE  MOCLDY    19  16  88 CALM      30.15R
6HR MIN TEMP:  17; 6HR MAX TEMP:  21;

CHICAGO-MIDWAY CLOUDY    23  19  85 S6        30.16R WCI  16
AURORA         CLOUDY    20  15  81 E7        30.15S HAZE    WCI  11
6HR MIN TEMP:  10; 6HR MAX TEMP:  20;

WAUKEGAN       NOT AVBL
DUPAGE AIRPORT CLOUDY    19  17  92 SE5       30.14S WCI  12
6HR MIN TEMP:   9; 6HR MAX TEMP:  19;

WHEELING       PTCLDY    18  14  84 CALM      30.17R
6HR MIN TEMP:  17; 6HR MAX TEMP:  21;

NORTHERLY ISL    N/A     26  20  77 SE8         N/A  WCI  18
$$

LMZ740>746-261300-
SOUTHERN LAKE MICHIGAN

STATION/POSITION SKY/WX   TEMP    WIND        PRES    VSBY  WAVE
                          AIR SEA DIR/SP/G                  HT/PER
                          (F)     (DEG/KT/KT) (MB)    (MI)  (FT/S)
SOUTHERN BUOY              28 42   CALM  /  8 1021.8F         1/ 3
WAUKEGAN HARBOR            23     140/  3/  7   N/A
HARRISON CRIB              25     110/  8/ 11   N/A
BURNHAM HARBOR             25     120/  3/  9   N/A
CALUMET HARBOR             24     200/  2/  4 1019.7F
MICHIGAN CITY              23      80/  7/  9   N/A
$$

ILZ025>027-034>036-040-047-049-050-058-095>099-261300-
WEST-CENTRAL ILLINOIS

CITY           SKY/WX    TMP DP  RH WIND       PRES   REMARKS
$$

ILZ028>032-037-038-041>044-048-051>054-059>061-261300-
CENTRAL ILLINOIS

CITY           SKY/WX    TMP DP  RH WIND       PRES   REMARKS
PEORIA         NOT AVBL
SPRINGFIELD    MOCLDY    27  24  89 SE6       30.10S WCI  20
6HR MIN TEMP:  22; 6HR MAX TEMP:  27;

TAYLORVILLE    NOT AVBL
$$

ILZ033-039-045-046-055>057-062-063-261300-
EAST-CENTRAL ILLINOIS

CITY           SKY/WX    TMP DP  RH WIND       PRES   REMARKS
MATTOON        CLEAR     22  19  89 SE5       30.12R WCI  16
$$

ILZ079-100>102-261300-
SOUTHWEST ILLINOIS

CITY           SKY/WX    TMP DP  RH WIND       PRES   REMARKS
CAHOKIA*       PTCLDY    28  25  88 SE8       30.09F WCI  20
$$

ILZ064>066-069>071-074>076-080>082-084>086-088>090-092>094-261300-
SOUTH-CENTRAL ILLINOIS

CITY           SKY/WX    TMP DP  RH WIND       PRES   REMARKS
CARBONDALE     PTCLDY    21  17  84 CALM      30.12S
6HR MIN TEMP:  20; 6HR MAX TEMP:  24;

$$

ILZ067-068-072-073-078-083-087-091-261300-
SOUTHEAST ILLINOIS

CITY           SKY/WX    TMP DP  RH WIND       PRES   REMARKS
$$

ABBREVIATIONS USED IN REMARKS
   TC - TEMPERATURE IN CELSIUS
  WCI - WIND CHILL INDEX
   HX - HEAT INDEX
  VSB - VISIBILITY
$$



USA.gov is the U.S. government's official web portal to all federal, state and local government web resources and services.